Вернуться в каталог

STARLINK-34053

АктивенСвязьVLEO
NORAD 63837·PAYLOAD·🇺🇸 United States

Запущен May 7, 2025 с Cape Canaveral Space Force Station

Loading…

Ближайшие Пролёты (ближайшие 24 часа)

TLE

СвежийSource: CelesTrak SupGP

Эпоха: Sep 14, 2026, 21:40 UTC

1 63837C 25093B   26257.90326389  .00011173  00000+0  40472-3 0  2577
2 63837  43.0025  89.4204 0001601 273.6738 273.6103 15.27570908    11

Отслеживайте STARLINK-34053 в реальном времени с AllMySat

Download on the App Store